Tracking 30995 objects as of 5-Jul-2025
HD Live streaming from Space Station
objects crossing your sky now

SL-14 DEB

Track SL-14 DEB now!
10-day predictions


NORAD ID: 45294
Int'l Code: 1991-056AG
Perigee: 1,180.0 km
Apogee: 1,196.9 km
Inclination: 82.6 °
Period: 109.0 minutes
Semi major axis: 7559 km
RCS: Unknown
Launch date: August 15, 1991
Source: Commonwealth of Independent States (former USSR) (CIS)
Launch site: PLESETSK MISSILE AND SPACE COMPLEX (PKMTR)

Note: This is SATELLITE DEBRIS
Your satellite tracking list
COSMOS 252 DEB
Track 1 satellite(s)




NASA's NSSDC Master Catalog

Two Line Element Set (TLE):
1 45294U 91056AG  25184.97277055  .00000810  00000-0  19576-2 0  9996
2 45294  82.5680  23.5970 0011218 271.3523  88.6317 13.20891396257781
Source of the keplerian elements: AFSPC